ORBCOMM FM 15

Satellite information

Favourite Embed

Satellite Type and Status

PAYLOADIN ORBIT

Key statistics

Satellite ORBCOMM FM 15 at a glance.

Uptime

9995

Days in orbit

Revolutions

≈ 14.4

Per day

Orbit

LEO

Low Earth Orbit

Inclination

45.0

Latest

Satellite identification and parameters

Extended collection of information and parameters for ORBCOMM FM 15.

Object identification

Identified? True

Debris? False

Object name: ORBCOMM FM 15

International designator: 1998-046F

Object number (NORAD): 25418

Object ID (CCSDS): 25418

Country: ORBITAL TELECOMMUNICATIONS SATELLITE (GLOBALSTAR) (ORB)

Current information (Y/N): Y

RCS size: MEDIUM

Orbital parameters

Period: 100.059 minutes

Inclination: 44.9969 deg

SMA: 7139.42 km

Apoapsis: 763.709 km

Periapsis: 758.86 km

RAAN: 52.8604 deg

Eccentricy: 0.00033962

Argument of periapsis: 149.1765 deg

Mean anomaly: 210.9283 deg

Mean motion: 14.39157754 rev/day

Mean motion (dot): 0.00002052 rev/day2

B* drag term: 0.00070203595 1/REarth

Two-line elements (TLE)

Creation date: Dec. 12, 2025, 10:14 a.m.

Reference frame: TEME

Reference center: EARTH

Epoch: Dec. 12, 2025, 4:34 a.m. UTC

TLE line 0: 0 ORBCOMM FM 15

TLE line 1: 1 25418U 98046F 25346.19030652 .00002052 00000-0 70204-3 0 9998

TLE line 2: 2 25418 44.9969 52.8604 0003396 149.1765 210.9283 14.39157754429884

Live tracking on map

Real-time ground track for satellite ORBCOMM FM 15.

In-orbit conjunctions

There are no conjunctions computed for ORBCOMM FM 15, at the moment. Check back to stay up to date, as we update our databases every day.

Go to all conjunctions

Associated space launch

ORBCOMM FM 15 was lifted into orbit during the mission ‘Pegasus XL HAPS | Orbcomm-B1 - B8’, on board a Pegasus XL HAPS space rocket.

The launch took place on Aug. 2, 1998, 4:24 p.m. from Wallops Flight Facility.

For more information about the launch, click the button.

Launch to space Pegasus XL HAPS | Orbcomm-B1 - B8
Pegasus XL HAPS | Orbcomm-B1 - B8

Agency: N/A

Status: Launch Successful

Launch date: Aug. 2, 1998, 4:24 p.m. UTC

Rocket: Pegasus XL HAPS

Launch pad: Wallops Flight Facility

Location: Air launch to orbit

...

Latest news about this satellite

There are no fresh news available about this satellite. Check back as we update our databases every day.


Newsletter sign-up

Weekly statistics, charts and insights to help you stay on top of the space industry.